Time,TemperatureF,DewpointF,PressureIn,WindDirection,WindDirectionDegrees,WindSpeedMPH,WindSpeedGustMPH,Humidity,HourlyPrecipIn,Conditions,Clouds,dailyrainin,SoftwareType,DateUTC
2013-10-15 00:00:00,64.1,58.2,30.09,North,0,0.0,0.0,81,0.00,,,0.00,WUHU216HW,2013-10-15 04:00:00,
2013-10-15 00:01:00,64.1,58.2,30.09,North,0,0.0,0.0,81,0.00,,,0.00,WUHU216HW,2013-10-15 04:01:00,
2013-10-15 00:02:00,64.1,58.2,30.09,North,0,0.0,0.0,81,0.00,,,0.00,WUHU216HW,2013-10-15 04:02:00,
2013-10-15 00:05:00,64.1,58.2,30.09,North,0,0.0,0.0,81,0.00,,,0.00,WUHU216HW,2013-10-15 04:05:00,
2013-10-15 00:06:00,64.1,58.2,30.09,North,0,0.0,0.0,81,0.00,,,0.00,WUHU216HW,2013-10-15 04:06:00,
2013-10-15 00:11:00,63.9,58.0,30.09,North,0,0.0,0.0,81,0.00,,,0.00,WUHU216HW,2013-10-15 04:11:00,
2013-10-15 00:16:00,63.9,58.0,30.09,North,0,0.0,0.0,81,0.00,,,0.00,WUHU216HW,2013-10-15 04:16:00,
2013-10-15 00:21:00,63.7,57.8,30.09,North,0,0.0,0.0,81,0.00,,,0.00,WUHU216HW,2013-10-15 04:21:00,
2013-10-15 00:26:00,63.7,57.8,30.09,North,0,0.0,0.0,81,0.00,,,0.00,WUHU216HW,2013-10-15 04:26:00,
2013-10-15 00:31:00,63.7,57.8,30.09,North,0,0.0,0.0,81,0.00,,,0.00,WUHU216HW,2013-10-15 04:31:00,
2013-10-15 00:36:00,63.7,57.8,30.09,North,0,0.0,0.0,81,0.00,,,0.00,WUHU216HW,2013-10-15 04:36:00,
2013-10-15 00:42:00,63.5,57.6,30.09,North,0,0.0,0.0,81,0.00,,,0.00,WUHU216HW,2013-10-15 04:42:00,
2013-10-15 00:47:00,63.4,57.4,30.09,North,0,0.0,0.0,81,0.00,,,0.00,WUHU216HW,2013-10-15 04:47:00,
2013-10-15 00:52:00,63.4,57.4,30.09,North,0,0.0,0.0,81,0.00,,,0.00,WUHU216HW,2013-10-15 04:52:00,
2013-10-15 00:57:00,63.4,57.4,30.09,North,0,0.0,0.0,81,0.00,,,0.00,WUHU216HW,2013-10-15 04:57:00,
2013-10-15 01:02:00,63.4,57.4,30.09,North,0,0.0,0.0,81,0.00,,,0.00,WUHU216HW,2013-10-15 05:02:00,
2013-10-15 01:07:00,63.4,57.4,30.09,North,0,0.0,0.0,81,0.00,,,0.00,WUHU216HW,2013-10-15 05:07:00,
2013-10-15 01:12:00,63.2,57.3,30.09,North,0,0.0,0.0,81,0.00,,,0.00,WUHU216HW,2013-10-15 05:12:00,
2013-10-15 01:17:00,63.2,57.3,30.09,North,0,0.0,0.0,81,0.00,,,0.00,WUHU216HW,2013-10-15 05:17:00,
2013-10-15 01:22:00,63.0,57.1,30.09,North,0,0.0,0.0,81,0.00,,,0.00,WUHU216HW,2013-10-15 05:22:00,
2013-10-15 01:27:00,63.0,57.1,30.09,North,0,0.0,0.0,81,0.00,,,0.00,WUHU216HW,2013-10-15 05:27:00,
2013-10-15 01:32:00,63.0,57.1,30.08,North,0,0.0,0.0,81,0.00,,,0.00,WUHU216HW,2013-10-15 05:32:00,
2013-10-15 01:37:00,63.0,57.1,30.08,North,0,0.0,0.0,81,0.00,,,0.00,WUHU216HW,2013-10-15 05:37:00,
2013-10-15 01:42:00,63.0,57.1,30.08,North,0,0.0,0.0,81,0.00,,,0.00,WUHU216HW,2013-10-15 05:42:00,
2013-10-15 01:48:00,63.0,57.1,30.08,North,0,0.0,0.0,81,0.00,,,0.00,WUHU216HW,2013-10-15 05:48:00,
2013-10-15 01:53:00,63.0,57.1,30.08,North,0,0.0,0.0,81,0.00,,,0.00,WUHU216HW,2013-10-15 05:53:00,
2013-10-15 01:58:00,62.8,56.9,30.08,North,0,0.0,0.0,81,0.00,,,0.00,WUHU216HW,2013-10-15 05:58:00,
2013-10-15 02:03:00,63.0,57.1,30.07,North,0,0.0,0.0,81,0.00,,,0.00,WUHU216HW,2013-10-15 06:03:00,
2013-10-15 02:08:00,62.8,56.9,30.07,North,0,0.0,0.0,81,0.00,,,0.00,WUHU216HW,2013-10-15 06:08:00,
2013-10-15 02:13:00,62.8,56.9,30.07,North,0,0.0,0.0,81,0.00,,,0.00,WUHU216HW,2013-10-15 06:13:00,
2013-10-15 02:18:00,62.8,56.9,30.08,North,0,0.0,0.0,81,0.00,,,0.00,WUHU216HW,2013-10-15 06:18:00,
2013-10-15 02:23:00,62.8,57.3,30.08,North,0,0.0,0.0,82,0.00,,,0.00,WUHU216HW,2013-10-15 06:23:00,
2013-10-15 02:28:00,62.8,57.3,30.08,North,0,0.0,0.0,82,0.00,,,0.00,WUHU216HW,2013-10-15 06:28:00,
2013-10-15 02:33:00,62.8,57.3,30.08,North,0,0.0,0.0,82,0.00,,,0.00,WUHU216HW,2013-10-15 06:33:00,
2013-10-15 02:38:00,62.8,57.3,30.07,North,0,0.0,0.0,82,0.00,,,0.00,WUHU216HW,2013-10-15 06:38:00,
2013-10-15 02:44:00,62.8,57.3,30.07,North,0,0.0,0.0,82,0.00,,,0.00,WUHU216HW,2013-10-15 06:44:00,
2013-10-15 02:49:00,62.6,57.1,30.07,North,0,0.0,0.0,82,0.00,,,0.00,WUHU216HW,2013-10-15 06:49:00,
2013-10-15 02:54:00,62.6,57.1,30.07,North,0,0.0,0.0,82,0.00,,,0.00,WUHU216HW,2013-10-15 06:54:00,
2013-10-15 02:59:00,62.6,57.1,30.07,North,0,0.0,0.0,82,0.00,,,0.00,WUHU216HW,2013-10-15 06:59:00,
2013-10-15 03:04:00,62.6,57.1,30.07,North,0,0.0,0.0,82,0.00,,,0.00,WUHU216HW,2013-10-15 07:04:00,
2013-10-15 03:09:00,62.6,57.1,30.07,North,0,0.0,0.0,82,0.00,,,0.00,WUHU216HW,2013-10-15 07:09:00,
2013-10-15 03:14:00,62.6,57.1,30.07,North,0,0.0,0.0,82,0.00,,,0.00,WUHU216HW,2013-10-15 07:14:00,
2013-10-15 03:19:00,62.5,56.9,30.07,North,0,0.0,0.0,82,0.00,,,0.00,WUHU216HW,2013-10-15 07:19:00,
2013-10-15 03:24:00,62.5,56.9,30.07,North,0,0.0,0.0,82,0.00,,,0.00,WUHU216HW,2013-10-15 07:24:00,
2013-10-15 03:29:00,62.3,56.7,30.06,North,0,0.0,0.0,82,0.00,,,0.00,WUHU216HW,2013-10-15 07:29:00,
2013-10-15 03:34:00,62.3,56.7,30.06,North,0,0.0,0.0,82,0.00,,,0.00,WUHU216HW,2013-10-15 07:34:00,
2013-10-15 03:40:00,62.3,56.7,30.06,North,0,0.0,0.0,82,0.00,,,0.00,WUHU216HW,2013-10-15 07:40:00,
2013-10-15 03:45:00,62.3,56.7,30.06,North,0,0.0,0.0,82,0.00,,,0.00,WUHU216HW,2013-10-15 07:45:00,
2013-10-15 03:50:00,62.3,56.7,30.06,North,0,0.0,0.0,82,0.00,,,0.00,WUHU216HW,2013-10-15 07:50:00,
2013-10-15 03:55:00,62.1,56.5,30.06,North,0,0.0,0.0,82,0.00,,,0.00,WUHU216HW,2013-10-15 07:55:00,
2013-10-15 04:00:00,62.1,56.5,30.06,North,0,0.0,0.0,82,0.00,,,0.00,WUHU216HW,2013-10-15 08:00:00,
2013-10-15 04:05:00,62.1,56.5,30.06,North,0,0.0,0.0,82,0.00,,,0.00,WUHU216HW,2013-10-15 08:05:00,
2013-10-15 04:10:00,62.3,56.7,30.07,North,0,0.0,0.0,82,0.00,,,0.00,WUHU216HW,2013-10-15 08:10:00,
2013-10-15 04:15:00,62.1,56.5,30.07,North,0,0.0,0.0,82,0.00,,,0.00,WUHU216HW,2013-10-15 08:15:00,
2013-10-15 04:20:00,62.1,56.5,30.06,North,0,0.0,0.0,82,0.00,,,0.00,WUHU216HW,2013-10-15 08:20:00,
2013-10-15 04:25:00,62.1,56.5,30.07,North,0,0.0,0.0,82,0.00,,,0.00,WUHU216HW,2013-10-15 08:25:00,
2013-10-15 04:30:00,62.1,56.5,30.07,North,0,0.0,0.0,82,0.00,,,0.00,WUHU216HW,2013-10-15 08:30:00,
2013-10-15 04:35:00,61.9,56.3,30.07,North,0,0.0,0.0,82,0.00,,,0.00,WUHU216HW,2013-10-15 08:35:00,
2013-10-15 04:41:00,61.9,56.3,30.07,North,0,0.0,0.0,82,0.00,,,0.00,WUHU216HW,2013-10-15 08:41:00,
2013-10-15 04:46:00,61.9,56.3,30.07,North,0,0.0,0.0,82,0.00,,,0.00,WUHU216HW,2013-10-15 08:46:00,
2013-10-15 04:51:00,61.9,56.3,30.06,North,0,0.0,0.0,82,0.00,,,0.00,WUHU216HW,2013-10-15 08:51:00,
2013-10-15 04:56:00,61.9,56.3,30.06,North,0,0.0,0.0,82,0.00,,,0.00,WUHU216HW,2013-10-15 08:56:00,
2013-10-15 05:01:00,61.9,56.3,30.06,North,0,0.0,0.0,82,0.00,,,0.00,WUHU216HW,2013-10-15 09:01:00,
2013-10-15 05:06:00,61.9,56.3,30.06,North,0,0.0,0.0,82,0.00,,,0.00,WUHU216HW,2013-10-15 09:06:00,
2013-10-15 05:11:00,61.9,56.3,30.06,North,0,0.0,0.0,82,0.00,,,0.00,WUHU216HW,2013-10-15 09:11:00,
2013-10-15 05:16:00,61.9,56.3,30.06,North,0,0.0,0.0,82,0.00,,,0.00,WUHU216HW,2013-10-15 09:16:00,
2013-10-15 05:21:00,61.7,56.2,30.05,North,0,0.0,0.0,82,0.00,,,0.00,WUHU216HW,2013-10-15 09:21:00,
2013-10-15 05:26:00,61.7,56.2,30.06,North,0,0.0,0.0,82,0.00,,,0.00,WUHU216HW,2013-10-15 09:26:00,
2013-10-15 05:31:00,61.7,56.2,30.05,North,0,0.0,0.0,82,0.00,,,0.00,WUHU216HW,2013-10-15 09:31:00,
2013-10-15 05:36:00,61.7,56.2,30.06,North,0,0.0,0.0,82,0.00,,,0.00,WUHU216HW,2013-10-15 09:36:00,
2013-10-15 05:41:00,61.7,56.2,30.06,North,0,0.0,0.0,82,0.00,,,0.00,WUHU216HW,2013-10-15 09:41:00,
2013-10-15 05:46:00,61.7,56.2,30.06,North,0,0.0,0.0,82,0.00,,,0.00,WUHU216HW,2013-10-15 09:46:00,
2013-10-15 05:51:00,61.7,56.2,30.06,North,0,0.0,0.0,82,0.00,,,0.00,WUHU216HW,2013-10-15 09:51:00,
2013-10-15 05:57:00,61.6,56.1,30.06,North,0,0.0,0.0,82,0.00,,,0.00,WUHU216HW,2013-10-15 09:57:00,
2013-10-15 06:02:00,61.6,56.1,30.06,North,0,0.0,0.0,82,0.00,,,0.00,WUHU216HW,2013-10-15 10:02:00,
2013-10-15 06:07:00,61.6,56.3,30.06,North,0,0.0,0.0,83,0.00,,,0.00,WUHU216HW,2013-10-15 10:07:00,
2013-10-15 06:12:00,61.6,56.3,30.06,North,0,0.0,0.0,83,0.00,,,0.00,WUHU216HW,2013-10-15 10:12:00,
2013-10-15 06:17:00,61.6,56.3,30.06,North,0,0.0,0.0,83,0.00,,,0.00,WUHU216HW,2013-10-15 10:17:00,
2013-10-15 06:22:00,61.6,56.3,30.06,North,0,0.0,0.0,83,0.00,,,0.00,WUHU216HW,2013-10-15 10:22:00,
2013-10-15 06:27:00,61.6,56.3,30.06,North,0,0.0,0.0,83,0.00,,,0.00,WUHU216HW,2013-10-15 10:27:00,
2013-10-15 06:32:00,61.6,56.3,30.06,North,0,0.0,0.0,83,0.00,,,0.00,WUHU216HW,2013-10-15 10:32:00,
2013-10-15 06:37:00,61.6,56.3,30.06,North,0,0.0,0.0,83,0.00,,,0.00,WUHU216HW,2013-10-15 10:37:00,
2013-10-15 06:42:00,61.6,56.3,30.06,North,0,0.0,0.0,83,0.00,,,0.00,WUHU216HW,2013-10-15 10:42:00,
2013-10-15 06:47:00,61.6,56.3,30.06,North,0,0.0,0.0,83,0.00,,,0.00,WUHU216HW,2013-10-15 10:47:00,
2013-10-15 06:52:00,61.6,56.3,30.06,North,0,0.0,0.0,83,0.00,,,0.00,WUHU216HW,2013-10-15 10:52:00,
2013-10-15 06:58:00,61.6,56.3,30.06,North,0,0.0,0.0,83,0.00,,,0.00,WUHU216HW,2013-10-15 10:58:00,
2013-10-15 07:03:00,61.6,56.3,30.06,North,0,0.0,0.0,83,0.00,,,0.00,WUHU216HW,2013-10-15 11:03:00,
2013-10-15 07:08:00,61.4,56.2,30.06,North,0,0.0,0.0,83,0.00,,,0.00,WUHU216HW,2013-10-15 11:08:00,
2013-10-15 07:13:00,61.4,56.2,30.06,North,0,0.0,0.0,83,0.00,,,0.00,WUHU216HW,2013-10-15 11:13:00,
2013-10-15 07:18:00,61.4,56.2,30.06,North,0,0.0,0.0,83,0.00,,,0.00,WUHU216HW,2013-10-15 11:18:00,
2013-10-15 07:23:00,61.4,56.2,30.05,North,0,0.0,0.0,83,0.00,,,0.00,WUHU216HW,2013-10-15 11:23:00,
2013-10-15 07:28:00,61.2,56.1,30.06,North,0,0.0,0.0,83,0.00,,,0.00,WUHU216HW,2013-10-15 11:28:00,
2013-10-15 07:33:00,61.2,56.1,30.05,North,0,0.0,0.0,83,0.00,,,0.00,WUHU216HW,2013-10-15 11:33:00,
2013-10-15 07:38:00,61.0,55.9,30.06,North,0,0.0,0.0,83,0.00,,,0.00,WUHU216HW,2013-10-15 11:38:00,
2013-10-15 07:43:00,61.0,55.9,30.06,North,0,0.0,0.0,83,0.00,,,0.00,WUHU216HW,2013-10-15 11:43:00,
2013-10-15 07:48:00,61.0,55.9,30.06,North,0,0.0,0.0,83,0.00,,,0.00,WUHU216HW,2013-10-15 11:48:00,
2013-10-15 07:53:00,60.8,55.7,30.06,North,0,0.0,0.0,83,0.00,,,0.00,WUHU216HW,2013-10-15 11:53:00,
2013-10-15 07:59:00,60.8,55.7,30.06,North,0,0.0,0.0,83,0.00,,,0.00,WUHU216HW,2013-10-15 11:59:00,
2013-10-15 08:04:00,60.8,55.7,30.06,North,0,0.0,0.0,83,0.00,,,0.00,WUHU216HW,2013-10-15 12:04:00,
2013-10-15 08:09:00,60.7,55.5,30.06,North,0,0.0,0.0,83,0.00,,,0.00,WUHU216HW,2013-10-15 12:09:00,
2013-10-15 08:14:00,60.7,55.5,30.06,North,0,0.0,0.0,83,0.00,,,0.00,WUHU216HW,2013-10-15 12:14:00,
2013-10-15 08:19:00,60.7,55.5,30.06,North,0,0.0,0.0,83,0.00,,,0.00,WUHU216HW,2013-10-15 12:19:00,
2013-10-15 08:24:00,60.5,55.4,30.06,North,0,0.0,0.0,83,0.00,,,0.00,WUHU216HW,2013-10-15 12:24:00,
2013-10-15 08:29:00,60.5,55.4,30.07,North,0,0.0,0.0,83,0.00,,,0.00,WUHU216HW,2013-10-15 12:29:00,
2013-10-15 08:34:00,60.5,55.4,30.07,North,0,0.0,0.0,83,0.00,,,0.00,WUHU216HW,2013-10-15 12:34:00,
2013-10-15 08:39:00,60.5,55.4,30.07,North,0,0.0,0.0,83,0.00,,,0.00,WUHU216HW,2013-10-15 12:39:00,
2013-10-15 08:44:00,60.5,55.4,30.07,North,0,0.0,0.0,83,0.00,,,0.00,WUHU216HW,2013-10-15 12:44:00,
2013-10-15 08:49:00,60.7,55.5,30.07,North,0,0.0,0.0,83,0.00,,,0.00,WUHU216HW,2013-10-15 12:49:00,
2013-10-15 08:54:00,60.8,55.7,30.08,North,0,0.0,0.0,83,0.00,,,0.00,WUHU216HW,2013-10-15 12:54:00,
2013-10-15 09:00:00,61.0,55.9,30.08,North,0,0.0,0.0,83,0.00,,,0.00,WUHU216HW,2013-10-15 13:00:00,
2013-10-15 09:05:00,61.2,56.1,30.08,North,0,0.0,0.0,83,0.00,,,0.00,WUHU216HW,2013-10-15 13:05:00,
2013-10-15 09:10:00,61.6,56.3,30.08,North,0,0.0,0.0,83,0.00,,,0.00,WUHU216HW,2013-10-15 13:10:00,
2013-10-15 09:15:00,61.9,56.7,30.08,North,0,0.0,0.0,83,0.00,,,0.00,WUHU216HW,2013-10-15 13:15:00,
2013-10-15 09:20:00,62.3,56.7,30.08,North,0,0.0,0.0,82,0.00,,,0.00,WUHU216HW,2013-10-15 13:20:00,
2013-10-15 09:25:00,62.6,56.7,30.08,North,0,0.0,0.0,81,0.00,,,0.00,WUHU216HW,2013-10-15 13:25:00,
2013-10-15 09:30:00,63.0,57.1,30.08,North,0,0.0,0.0,81,0.00,,,0.00,WUHU216HW,2013-10-15 13:30:00,
2013-10-15 09:35:00,63.0,56.7,30.08,North,0,0.0,0.0,80,0.00,,,0.00,WUHU216HW,2013-10-15 13:35:00,
2013-10-15 09:40:00,63.0,56.7,30.08,North,0,0.0,0.0,80,0.00,,,0.00,WUHU216HW,2013-10-15 13:40:00,
2013-10-15 09:45:00,63.2,56.9,30.09,North,0,0.0,0.0,80,0.00,,,0.00,WUHU216HW,2013-10-15 13:45:00,
2013-10-15 09:50:00,63.4,56.7,30.08,North,0,0.0,0.0,79,0.00,,,0.00,WUHU216HW,2013-10-15 13:50:00,
2013-10-15 09:56:00,63.4,56.7,30.08,North,0,0.0,0.0,79,0.00,,,0.00,WUHU216HW,2013-10-15 13:56:00,
2013-10-15 10:01:00,63.5,57.2,30.08,North,0,0.0,0.0,80,0.00,,,0.00,WUHU216HW,2013-10-15 14:01:00,
2013-10-15 10:06:00,63.7,57.4,30.08,North,0,0.0,0.0,80,0.00,,,0.00,WUHU216HW,2013-10-15 14:06:00,
2013-10-15 10:11:00,63.9,57.2,30.08,North,0,0.0,0.0,79,0.00,,,0.00,WUHU216HW,2013-10-15 14:11:00,
2013-10-15 10:16:00,64.1,57.4,30.08,North,0,0.0,0.0,79,0.00,,,0.00,WUHU216HW,2013-10-15 14:16:00,
2013-10-15 10:21:00,64.4,57.4,30.08,North,0,0.0,0.0,78,0.00,,,0.00,WUHU216HW,2013-10-15 14:21:00,
2013-10-15 10:26:00,64.6,57.6,30.07,North,0,0.0,0.0,78,0.00,,,0.00,WUHU216HW,2013-10-15 14:26:00,
2013-10-15 10:31:00,64.6,57.6,30.07,North,0,0.0,0.0,78,0.00,,,0.00,WUHU216HW,2013-10-15 14:31:00,
2013-10-15 10:36:00,65.0,57.6,30.07,North,0,0.0,0.0,77,0.00,,,0.00,WUHU216HW,2013-10-15 14:36:00,
2013-10-15 10:41:00,65.2,57.8,30.07,North,0,0.0,0.0,77,0.00,,,0.00,WUHU216HW,2013-10-15 14:41:00,
2013-10-15 10:46:00,65.2,57.8,30.07,North,0,0.0,0.0,77,0.00,,,0.00,WUHU216HW,2013-10-15 14:46:00,
2013-10-15 10:51:00,65.5,57.8,30.06,North,0,0.0,0.0,76,0.00,,,0.00,WUHU216HW,2013-10-15 14:51:00,
2013-10-15 10:57:00,65.5,57.3,30.06,North,0,0.0,0.0,75,0.00,,,0.00,WUHU216HW,2013-10-15 14:57:00,
2013-10-15 11:02:00,65.5,57.3,30.06,North,0,0.0,0.0,75,0.00,,,0.00,WUHU216HW,2013-10-15 15:02:00,
2013-10-15 11:07:00,65.7,57.5,30.05,North,0,0.0,0.0,75,0.00,,,0.00,WUHU216HW,2013-10-15 15:07:00,
2013-10-15 11:12:00,66.1,57.5,30.05,North,0,0.0,0.0,74,0.00,,,0.00,WUHU216HW,2013-10-15 15:12:00,
2013-10-15 11:17:00,66.2,57.7,30.04,North,0,0.0,0.0,74,0.00,,,0.00,WUHU216HW,2013-10-15 15:17:00,
2013-10-15 11:22:00,66.6,58.1,30.04,North,0,0.0,0.0,74,0.00,,,0.00,WUHU216HW,2013-10-15 15:22:00,
2013-10-15 11:27:00,67.0,58.4,30.04,North,0,0.0,0.0,74,0.00,,,0.00,WUHU216HW,2013-10-15 15:27:00,
2013-10-15 11:32:00,67.1,58.2,30.04,North,0,0.0,0.0,73,0.00,,,0.00,WUHU216HW,2013-10-15 15:32:00,
2013-10-15 11:37:00,67.5,58.6,30.04,North,0,0.0,0.0,73,0.00,,,0.00,WUHU216HW,2013-10-15 15:37:00,
2013-10-15 11:42:00,67.5,58.1,30.04,North,0,0.0,0.0,72,0.00,,,0.00,WUHU216HW,2013-10-15 15:42:00,
2013-10-15 11:47:00,67.7,58.0,30.04,North,0,0.0,0.0,71,0.00,,,0.00,WUHU216HW,2013-10-15 15:47:00,
2013-10-15 11:53:00,67.9,57.8,30.04,North,0,0.0,0.0,70,0.00,,,0.00,WUHU216HW,2013-10-15 15:53:00,
2013-10-15 11:58:00,67.9,57.3,30.04,North,0,0.0,0.0,69,0.00,,,0.00,WUHU216HW,2013-10-15 15:58:00,
2013-10-15 12:03:00,68.0,57.5,30.04,North,0,0.0,0.0,69,0.00,,,0.00,WUHU216HW,2013-10-15 16:03:00,
2013-10-15 12:08:00,67.9,57.8,30.04,North,0,0.0,0.0,70,0.00,,,0.00,WUHU216HW,2013-10-15 16:08:00,
2013-10-15 12:13:00,68.0,57.5,30.04,North,0,0.0,0.0,69,0.00,,,0.00,WUHU216HW,2013-10-15 16:13:00,
2013-10-15 12:18:00,68.2,57.2,30.04,North,0,0.0,0.0,68,0.00,,,0.00,WUHU216HW,2013-10-15 16:18:00,
2013-10-15 12:23:00,68.4,57.4,30.04,North,0,0.0,0.0,68,0.00,,,0.00,WUHU216HW,2013-10-15 16:23:00,
2013-10-15 12:28:00,68.8,57.8,30.04,North,0,0.0,0.0,68,0.00,,,0.00,WUHU216HW,2013-10-15 16:28:00,
2013-10-15 12:33:00,68.8,57.8,30.04,North,0,0.0,0.0,68,0.00,,,0.00,WUHU216HW,2013-10-15 16:33:00,
2013-10-15 12:38:00,69.1,58.1,30.04,North,0,0.0,0.0,68,0.00,,,0.00,WUHU216HW,2013-10-15 16:38:00,
2013-10-15 12:43:00,69.1,57.7,30.03,North,0,0.0,0.0,67,0.00,,,0.00,WUHU216HW,2013-10-15 16:43:00,
2013-10-15 12:49:00,69.3,57.4,30.04,North,0,0.0,0.0,66,0.00,,,0.00,WUHU216HW,2013-10-15 16:49:00,
2013-10-15 12:54:00,69.7,57.8,30.03,North,0,0.0,0.0,66,0.00,,,0.00,WUHU216HW,2013-10-15 16:54:00,
2013-10-15 12:59:00,69.8,57.5,30.03,North,0,0.0,0.0,65,0.00,,,0.00,WUHU216HW,2013-10-15 16:59:00,
2013-10-15 13:04:00,70.0,57.7,30.02,North,0,0.0,0.0,65,0.00,,,0.00,WUHU216HW,2013-10-15 17:04:00,
2013-10-15 13:09:00,70.0,57.2,30.02,North,0,0.0,0.0,64,0.00,,,0.00,WUHU216HW,2013-10-15 17:09:00,
2013-10-15 13:14:00,70.4,57.6,30.02,North,0,0.0,0.0,64,0.00,,,0.00,WUHU216HW,2013-10-15 17:14:00,
2013-10-15 13:19:00,70.6,57.8,30.01,North,0,0.0,0.0,64,0.00,,,0.00,WUHU216HW,2013-10-15 17:19:00,
2013-10-15 13:24:00,70.7,58.0,30.01,North,0,0.0,0.0,64,0.00,,,0.00,WUHU216HW,2013-10-15 17:24:00,
2013-10-15 13:29:00,70.9,57.7,30.01,North,0,0.0,0.0,63,0.00,,,0.00,WUHU216HW,2013-10-15 17:29:00,
2013-10-15 13:34:00,71.3,58.1,30.01,North,0,0.0,0.0,63,0.00,,,0.00,WUHU216HW,2013-10-15 17:34:00,
2013-10-15 13:39:00,71.5,58.2,30.01,North,0,0.0,0.0,63,0.00,,,0.00,WUHU216HW,2013-10-15 17:39:00,
2013-10-15 13:45:00,71.6,58.0,30.00,North,0,0.0,0.0,62,0.00,,,0.00,WUHU216HW,2013-10-15 17:45:00,
2013-10-15 13:50:00,71.8,58.1,30.00,North,0,0.0,0.0,62,0.00,,,0.00,WUHU216HW,2013-10-15 17:50:00,
2013-10-15 13:55:00,72.0,57.8,29.99,North,0,0.0,0.0,61,0.00,,,0.00,WUHU216HW,2013-10-15 17:55:00,
2013-10-15 14:00:00,72.0,57.8,29.99,North,0,0.0,0.0,61,0.00,,,0.00,WUHU216HW,2013-10-15 18:00:00,
2013-10-15 14:05:00,72.4,58.1,29.99,North,0,0.0,0.0,61,0.00,,,0.00,WUHU216HW,2013-10-15 18:05:00,
2013-10-15 14:10:00,72.4,57.7,29.99,North,0,0.0,0.0,60,0.00,,,0.00,WUHU216HW,2013-10-15 18:10:00,
2013-10-15 14:15:00,72.4,57.7,29.98,North,0,0.0,0.0,60,0.00,,,0.00,WUHU216HW,2013-10-15 18:15:00,
2013-10-15 14:20:00,72.5,57.9,29.98,North,0,0.0,0.0,60,0.00,,,0.00,WUHU216HW,2013-10-15 18:20:00,
2013-10-15 14:25:00,72.7,58.1,29.97,North,0,0.0,0.0,60,0.00,,,0.00,WUHU216HW,2013-10-15 18:25:00,
2013-10-15 14:30:00,72.9,57.7,29.97,North,0,0.0,0.0,59,0.00,,,0.00,WUHU216HW,2013-10-15 18:30:00,
2013-10-15 14:36:00,73.1,56.3,29.97,North,0,0.0,0.0,56,0.00,,,0.00,WUHU216HW,2013-10-15 18:36:00,
2013-10-15 14:41:00,72.9,56.7,29.97,North,0,0.0,0.0,57,0.00,,,0.00,WUHU216HW,2013-10-15 18:41:00,
2013-10-15 14:46:00,72.9,57.2,29.96,North,0,0.0,0.0,58,0.00,,,0.00,WUHU216HW,2013-10-15 18:46:00,
2013-10-15 14:51:00,73.1,57.3,29.96,North,0,0.0,0.0,58,0.00,,,0.00,WUHU216HW,2013-10-15 18:51:00,
2013-10-15 14:56:00,72.9,56.7,29.96,North,0,0.0,0.0,57,0.00,,,0.00,WUHU216HW,2013-10-15 18:56:00,
2013-10-15 15:01:00,72.9,56.7,29.96,North,0,0.0,0.0,57,0.00,,,0.00,WUHU216HW,2013-10-15 19:01:00,
2013-10-15 15:06:00,73.1,57.3,29.96,North,0,0.0,0.0,58,0.00,,,0.00,WUHU216HW,2013-10-15 19:06:00,
2013-10-15 15:11:00,73.1,56.9,29.96,North,0,0.0,0.0,57,0.00,,,0.00,WUHU216HW,2013-10-15 19:11:00,
2013-10-15 15:16:00,73.1,56.9,29.96,North,0,0.0,0.0,57,0.00,,,0.00,WUHU216HW,2013-10-15 19:16:00,
2013-10-15 15:21:00,73.1,56.3,29.96,North,0,0.0,0.0,56,0.00,,,0.00,WUHU216HW,2013-10-15 19:21:00,
2013-10-15 15:27:00,73.1,56.3,29.96,North,0,0.0,0.0,56,0.00,,,0.00,WUHU216HW,2013-10-15 19:27:00,
2013-10-15 15:32:00,73.1,56.3,29.96,North,0,0.0,0.0,56,0.00,,,0.00,WUHU216HW,2013-10-15 19:32:00,
2013-10-15 15:37:00,72.9,56.2,29.96,North,0,0.0,0.0,56,0.00,,,0.00,WUHU216HW,2013-10-15 19:37:00,
2013-10-15 15:42:00,72.9,56.2,29.96,North,0,0.0,0.0,56,0.00,,,0.00,WUHU216HW,2013-10-15 19:42:00,
2013-10-15 15:47:00,73.1,56.3,29.96,North,0,0.0,0.0,56,0.00,,,0.00,WUHU216HW,2013-10-15 19:47:00,
2013-10-15 15:52:00,73.3,56.5,29.95,North,0,0.0,0.0,56,0.00,,,0.00,WUHU216HW,2013-10-15 19:52:00,
2013-10-15 15:57:00,73.3,56.5,29.96,North,0,0.0,0.0,56,0.00,,,0.00,WUHU216HW,2013-10-15 19:57:00,
2013-10-15 16:02:00,73.4,56.7,29.95,North,0,0.0,0.0,56,0.00,,,0.00,WUHU216HW,2013-10-15 20:02:00,
2013-10-15 16:07:00,73.4,56.7,29.95,North,0,0.0,0.0,56,0.00,,,0.00,WUHU216HW,2013-10-15 20:07:00,
2013-10-15 16:12:00,73.3,56.5,29.95,North,0,0.0,0.0,56,0.00,,,0.00,WUHU216HW,2013-10-15 20:12:00,
2013-10-15 16:17:00,73.1,55.8,29.96,North,0,0.0,0.0,55,0.00,,,0.00,WUHU216HW,2013-10-15 20:17:00,
2013-10-15 16:22:00,73.1,55.8,29.95,North,0,0.0,0.0,55,0.00,,,0.00,WUHU216HW,2013-10-15 20:22:00,
2013-10-15 16:28:00,73.1,56.3,29.95,North,0,0.0,0.0,56,0.00,,,0.00,WUHU216HW,2013-10-15 20:28:00,
2013-10-15 16:33:00,73.1,56.3,29.95,North,0,0.0,0.0,56,0.00,,,0.00,WUHU216HW,2013-10-15 20:33:00,
2013-10-15 16:38:00,73.1,56.3,29.95,North,0,0.0,0.0,56,0.00,,,0.00,WUHU216HW,2013-10-15 20:38:00,
2013-10-15 16:43:00,72.9,56.2,29.95,North,0,0.0,0.0,56,0.00,,,0.00,WUHU216HW,2013-10-15 20:43:00,
2013-10-15 16:48:00,72.7,56.5,29.95,North,0,0.0,0.0,57,0.00,,,0.00,WUHU216HW,2013-10-15 20:48:00,
2013-10-15 16:53:00,72.5,56.3,29.95,North,0,0.0,0.0,57,0.00,,,0.00,WUHU216HW,2013-10-15 20:53:00,
2013-10-15 16:58:00,72.4,56.2,29.95,North,0,0.0,0.0,57,0.00,,,0.00,WUHU216HW,2013-10-15 20:58:00,
2013-10-15 17:03:00,72.4,56.2,29.95,North,0,0.0,0.0,57,0.00,,,0.00,WUHU216HW,2013-10-15 21:03:00,
2013-10-15 17:08:00,72.4,56.2,29.94,North,0,0.0,0.0,57,0.00,,,0.00,WUHU216HW,2013-10-15 21:08:00,
2013-10-15 17:14:00,72.0,56.3,29.95,North,0,0.0,0.0,58,0.00,,,0.00,WUHU216HW,2013-10-15 21:14:00,
2013-10-15 17:19:00,72.0,56.3,29.94,North,0,0.0,0.0,58,0.00,,,0.00,WUHU216HW,2013-10-15 21:19:00,
2013-10-15 17:24:00,71.8,56.7,29.94,North,0,0.0,0.0,59,0.00,,,0.00,WUHU216HW,2013-10-15 21:24:00,
2013-10-15 17:29:00,71.6,57.1,29.94,North,0,0.0,0.0,60,0.00,,,0.00,WUHU216HW,2013-10-15 21:29:00,
2013-10-15 17:34:00,71.6,57.5,29.94,North,0,0.0,0.0,61,0.00,,,0.00,WUHU216HW,2013-10-15 21:34:00,
2013-10-15 17:39:00,71.5,57.3,29.94,North,0,0.0,0.0,61,0.00,,,0.00,WUHU216HW,2013-10-15 21:39:00,
2013-10-15 17:44:00,71.3,57.6,29.94,North,0,0.0,0.0,62,0.00,,,0.00,WUHU216HW,2013-10-15 21:44:00,
2013-10-15 17:49:00,71.1,57.4,29.94,North,0,0.0,0.0,62,0.00,,,0.00,WUHU216HW,2013-10-15 21:49:00,
2013-10-15 17:54:00,70.9,57.2,29.94,North,0,0.0,0.0,62,0.00,,,0.00,WUHU216HW,2013-10-15 21:54:00,
2013-10-15 18:00:00,70.7,57.1,29.94,North,0,0.0,0.0,62,0.00,,,0.00,WUHU216HW,2013-10-15 22:00:00,
2013-10-15 18:05:00,70.6,57.3,29.94,North,0,0.0,0.0,63,0.00,,,0.00,WUHU216HW,2013-10-15 22:05:00,
2013-10-15 18:10:00,70.2,57.1,29.94,North,0,0.0,0.0,63,0.00,,,0.00,WUHU216HW,2013-10-15 22:10:00,
2013-10-15 18:15:00,70.0,57.2,29.95,North,0,0.0,0.0,64,0.00,,,0.00,WUHU216HW,2013-10-15 22:15:00,
2013-10-15 18:20:00,69.8,57.5,29.94,North,0,0.0,0.0,65,0.00,,,0.00,WUHU216HW,2013-10-15 22:20:00,
2013-10-15 18:25:00,69.7,57.3,29.95,North,0,0.0,0.0,65,0.00,,,0.00,WUHU216HW,2013-10-15 22:25:00,
2013-10-15 18:30:00,69.5,57.2,29.94,North,0,0.0,0.0,65,0.00,,,0.00,WUHU216HW,2013-10-15 22:30:00,
2013-10-15 18:35:00,69.1,57.2,29.95,North,0,0.0,0.0,66,0.00,,,0.00,WUHU216HW,2013-10-15 22:35:00,
2013-10-15 18:40:00,68.8,56.9,29.95,North,0,0.0,0.0,66,0.00,,,0.00,WUHU216HW,2013-10-15 22:40:00,
2013-10-15 18:45:00,68.6,57.2,29.96,North,0,0.0,0.0,67,0.00,,,0.00,WUHU216HW,2013-10-15 22:45:00,
2013-10-15 18:51:00,68.4,57.0,29.95,North,0,0.0,0.0,67,0.00,,,0.00,WUHU216HW,2013-10-15 22:51:00,
2013-10-15 18:56:00,68.2,57.2,29.95,North,0,0.0,0.0,68,0.00,,,0.00,WUHU216HW,2013-10-15 22:56:00,
2013-10-15 19:01:00,68.0,57.1,29.95,North,0,0.0,0.0,68,0.00,,,0.00,WUHU216HW,2013-10-15 23:01:00,
2013-10-15 19:06:00,68.0,57.5,29.95,North,0,0.0,0.0,69,0.00,,,0.00,WUHU216HW,2013-10-15 23:06:00,
2013-10-15 19:11:00,67.9,57.3,29.95,North,0,0.0,0.0,69,0.00,,,0.00,WUHU216HW,2013-10-15 23:11:00,
2013-10-15 19:16:00,67.7,57.2,29.95,North,0,0.0,0.0,69,0.00,,,0.00,WUHU216HW,2013-10-15 23:16:00,
2013-10-15 19:21:00,67.3,57.2,29.95,North,0,0.0,0.0,70,0.00,,,0.00,WUHU216HW,2013-10-15 23:21:00,
2013-10-15 19:26:00,67.1,57.1,29.96,North,0,0.0,0.0,70,0.00,,,0.00,WUHU216HW,2013-10-15 23:26:00,
2013-10-15 19:32:00,67.0,56.9,29.96,North,0,0.0,0.0,70,0.00,,,0.00,WUHU216HW,2013-10-15 23:32:00,
2013-10-15 19:37:00,66.6,56.5,29.96,North,0,0.0,0.0,70,0.00,,,0.00,WUHU216HW,2013-10-15 23:37:00,
2013-10-15 19:42:00,66.6,56.5,29.96,North,0,0.0,0.0,70,0.00,,,0.00,WUHU216HW,2013-10-15 23:42:00,
2013-10-15 19:47:00,66.2,56.5,29.96,North,0,0.0,0.0,71,0.00,,,0.00,WUHU216HW,2013-10-15 23:47:00,
2013-10-15 19:52:00,66.1,56.3,29.96,North,0,0.0,0.0,71,0.00,,,0.00,WUHU216HW,2013-10-15 23:52:00,
2013-10-15 19:57:00,65.9,57.0,29.96,North,0,0.0,0.0,73,0.00,,,0.00,WUHU216HW,2013-10-15 23:57:00,
2013-10-15 20:02:00,66.8,58.2,29.96,North,0,0.0,0.0,74,0.00,,,0.00,WUHU216HW,2013-10-16 00:02:00,
2013-10-15 20:07:00,69.1,60.5,29.96,North,0,0.0,0.0,74,0.00,,,0.00,WUHU216HW,2013-10-16 00:07:00,
2013-10-15 20:12:00,72.7,62.8,29.96,North,0,0.0,0.0,71,0.00,,,0.00,WUHU216HW,2013-10-16 00:12:00,
2013-10-15 20:17:00,73.4,62.7,29.96,North,0,0.0,0.0,69,0.00,,,0.00,WUHU216HW,2013-10-16 00:17:00,
2013-10-15 20:22:00,73.8,62.2,29.96,North,0,0.0,0.0,67,0.00,,,0.00,WUHU216HW,2013-10-16 00:22:00,
2013-10-15 20:27:00,74.0,61.9,29.96,North,0,0.0,0.0,66,0.00,,,0.00,WUHU216HW,2013-10-16 00:27:00,
2013-10-15 20:32:00,73.6,61.6,29.97,North,0,0.0,0.0,66,0.00,,,0.00,WUHU216HW,2013-10-16 00:32:00,
2013-10-15 20:38:00,72.7,60.7,29.97,North,0,0.0,0.0,66,0.00,,,0.00,WUHU216HW,2013-10-16 00:38:00,
2013-10-15 20:43:00,72.0,60.0,29.97,North,0,0.0,0.0,66,0.00,,,0.00,WUHU216HW,2013-10-16 00:43:00,
2013-10-15 20:48:00,71.1,58.7,29.96,North,0,0.0,0.0,65,0.00,,,0.00,WUHU216HW,2013-10-16 00:48:00,
2013-10-15 20:53:00,70.6,58.6,29.97,North,0,0.0,0.0,66,0.00,,,0.00,WUHU216HW,2013-10-16 00:53:00,
2013-10-15 20:58:00,69.8,58.3,29.97,North,0,0.0,0.0,67,0.00,,,0.00,WUHU216HW,2013-10-16 00:58:00,
2013-10-15 21:03:00,69.1,58.1,29.97,North,0,0.0,0.0,68,0.00,,,0.00,WUHU216HW,2013-10-16 01:03:00,
2013-10-15 21:08:00,68.6,57.6,29.97,North,0,0.0,0.0,68,0.00,,,0.00,WUHU216HW,2013-10-16 01:08:00,
2013-10-15 21:13:00,68.0,57.5,29.97,North,0,0.0,0.0,69,0.00,,,0.00,WUHU216HW,2013-10-16 01:13:00,
2013-10-15 21:18:00,67.5,57.0,29.97,North,0,0.0,0.0,69,0.00,,,0.00,WUHU216HW,2013-10-16 01:18:00,
2013-10-15 21:24:00,67.1,57.1,29.97,North,0,0.0,0.0,70,0.00,,,0.00,WUHU216HW,2013-10-16 01:24:00,
2013-10-15 21:29:00,66.8,56.7,29.97,North,0,0.0,0.0,70,0.00,,,0.00,WUHU216HW,2013-10-16 01:29:00,
2013-10-15 21:34:00,66.4,56.7,29.97,North,0,0.0,0.0,71,0.00,,,0.00,WUHU216HW,2013-10-16 01:34:00,
2013-10-15 21:39:00,66.1,56.3,29.97,North,0,0.0,0.0,71,0.00,,,0.00,WUHU216HW,2013-10-16 01:39:00,
2013-10-15 21:44:00,65.7,56.4,29.97,North,0,0.0,0.0,72,0.00,,,0.00,WUHU216HW,2013-10-16 01:44:00,
2013-10-15 21:49:00,65.3,56.1,29.97,North,0,0.0,0.0,72,0.00,,,0.00,WUHU216HW,2013-10-16 01:49:00,
2013-10-15 21:54:00,65.2,56.3,29.97,North,0,0.0,0.0,73,0.00,,,0.00,WUHU216HW,2013-10-16 01:54:00,
2013-10-15 21:59:00,64.8,56.0,29.97,North,0,0.0,0.0,73,0.00,,,0.00,WUHU216HW,2013-10-16 01:59:00,
2013-10-15 22:04:00,64.4,56.0,29.97,North,0,0.0,0.0,74,0.00,,,0.00,WUHU216HW,2013-10-16 02:04:00,
2013-10-15 22:09:00,64.3,55.8,29.97,North,0,0.0,0.0,74,0.00,,,0.00,WUHU216HW,2013-10-16 02:09:00,
2013-10-15 22:15:00,64.1,55.6,29.97,North,0,0.0,0.0,74,0.00,,,0.00,WUHU216HW,2013-10-16 02:15:00,
2013-10-15 22:20:00,63.9,55.8,29.97,North,0,0.0,0.0,75,0.00,,,0.00,WUHU216HW,2013-10-16 02:20:00,
2013-10-15 22:25:00,63.7,55.6,29.97,North,0,0.0,0.0,75,0.00,,,0.00,WUHU216HW,2013-10-16 02:25:00,
2013-10-15 22:30:00,63.5,55.4,29.97,North,0,0.0,0.0,75,0.00,,,0.00,WUHU216HW,2013-10-16 02:30:00,
2013-10-15 22:35:00,63.2,55.4,29.97,North,0,0.0,0.0,76,0.00,,,0.00,WUHU216HW,2013-10-16 02:35:00,
2013-10-15 22:40:00,63.0,55.3,29.97,North,0,0.0,0.0,76,0.00,,,0.00,WUHU216HW,2013-10-16 02:40:00,
2013-10-15 22:45:00,62.8,55.1,29.97,North,0,0.0,0.0,76,0.00,,,0.00,WUHU216HW,2013-10-16 02:45:00,
2013-10-15 22:50:00,62.6,54.5,29.97,North,0,0.0,0.0,75,0.00,,,0.00,WUHU216HW,2013-10-16 02:50:00,
2013-10-15 22:55:00,62.6,54.9,29.97,North,0,0.0,0.0,76,0.00,,,0.00,WUHU216HW,2013-10-16 02:55:00,
2013-10-15 23:01:00,62.3,54.5,29.97,North,0,0.0,0.0,76,0.00,,,0.00,WUHU216HW,2013-10-16 03:01:00,
2013-10-15 23:06:00,62.3,54.5,29.97,North,0,0.0,0.0,76,0.00,,,0.00,WUHU216HW,2013-10-16 03:06:00,
2013-10-15 23:11:00,62.1,54.5,29.97,North,0,0.0,0.0,76,0.00,,,0.00,WUHU216HW,2013-10-16 03:11:00,
2013-10-15 23:16:00,61.9,54.3,29.97,North,0,0.0,0.0,76,0.00,,,0.00,WUHU216HW,2013-10-16 03:16:00,
2013-10-15 23:21:00,61.7,54.5,29.97,North,0,0.0,0.0,77,0.00,,,0.00,WUHU216HW,2013-10-16 03:21:00,
2013-10-15 23:26:00,61.6,54.3,29.97,North,0,0.0,0.0,77,0.00,,,0.00,WUHU216HW,2013-10-16 03:26:00,
2013-10-15 23:31:00,61.6,54.3,29.97,North,0,0.0,0.0,77,0.00,,,0.00,WUHU216HW,2013-10-16 03:31:00,
2013-10-15 23:36:00,61.6,54.3,29.97,North,0,0.0,0.0,77,0.00,,,0.00,WUHU216HW,2013-10-16 03:36:00,
2013-10-15 23:41:00,61.2,54.4,29.97,North,0,0.0,0.0,78,0.00,,,0.00,WUHU216HW,2013-10-16 03:41:00,
2013-10-15 23:46:00,61.2,54.4,29.97,North,0,0.0,0.0,78,0.00,,,0.00,WUHU216HW,2013-10-16 03:46:00,
2013-10-15 23:52:00,61.0,54.2,29.97,North,0,0.0,0.0,78,0.00,,,0.00,WUHU216HW,2013-10-16 03:52:00,
2013-10-15 23:57:00,60.8,54.0,29.97,North,0,0.0,0.0,78,0.00,,,0.00,WUHU216HW,2013-10-16 03:57:00,